KUIPER-00554

导读

KUIPER-00554(NORAD编号69619)是美国亚马逊公司“柯伊伯(Project Kuiper)”低轨通信卫星星座的组成卫星。柯伊伯星座计划部署超3200颗低轨卫星,提供全球高速低延迟宽带网络服务,重点覆盖偏远、农村等网络欠发达区域,支持民用通信、航空机载连接等场景。 该卫星大概率为2025年9月26日ULA使用Atlas V火箭发射的27颗柯伊伯卫星之一,初始部署高度465公里,后续将抬升至约590-630公里的工作轨道,轨道倾角约51.9度,在轨运行稳定,是亚马逊推进全球卫星互联网组网的重要节点。目前公开数据库暂未查询到该编号卫星的更详细轨道与任务参数。

基本信息
目录编号:
69619
目录名称:
KUIPER-00554
国际标识:
2026-140AD
轨道中心:
EARTH
卫星名称:
KUIPER-00554
卫星全名:
KUIPER-00554
卫星状态:
在轨 (已飞行70 天)
发射日期:
2026-06-17 UTC
国别 :
美国 (US)
星等 :
--
轨道信息
数据来源 国际轨道数据
星历时间: 2026-08-26T05:33:06+0800
13小时前
查看轨道信息
半长轴: 6828.104km
偏心率: 0.0010474
轨道倾角: 51.879°
近地点辐角 77.803°
升交点赤经 61.215°
平近点角 282.413°
近地点: 442.815km
远地点: 457.119km
周期: 93.586分钟
每日圈数: 15.386954
详细信息
使用方式:
暂无
2D轨道图
3D轨道图
轨道高度分析图
轨道倾角分析图
轨道综合分析图
查看轨道综合分析图